| time (UTC) | temp F | wind direction | speed MPH | gust MPH | rain 1hr in | rain 24hr in | rain mn in | humidity % | barometer mb |
| 20260901233936 | 61 | 157 | 0.0 | 1.0 | 0.01 | 0.46 | 0.46 | 84 | 1022.5 |
| 20260901230938 | 62 | 112 | 0.0 | 0.0 | 0.00 | 0.45 | 0.45 | 83 | 1022.5 |
| 20260901230036 | 62 | 112 | 0.0 | 0.0 | 0.00 | 0.45 | 0.45 | 84 | 1022.4 |
| 20260901225056 | 62 | 112 | 0.0 | 0.0 | 0.00 | 0.45 | 0.45 | 84 | 1022.4 |
| 20260901224136 | 62 | 112 | 0.0 | 0.0 | 0.00 | 0.45 | 0.45 | 84 | 1022.2 |
| 20260901223137 | 62 | 112 | 0.0 | 0.0 | 0.00 | 0.45 | 0.45 | 84 | 1022.3 |
| 20260901222140 | 62 | 112 | 0.0 | 0.0 | 0.00 | 0.45 | 0.45 | 84 | 1022.2 |
| 20260901221138 | 62 | 112 | 0.0 | 0.0 | 0.01 | 0.45 | 0.45 | 83 | 1022.1 |
| 20260901221038 | 62 | 112 | 0.0 | 0.0 | 0.01 | 0.45 | 0.45 | 84 | 1022.0 |
| 20260901220137 | 62 | 112 | 0.0 | 0.0 | 0.01 | 0.45 | 0.45 | 83 | 1022.0 |
| 20260901214138 | 62 | 22 | 0.0 | 0.0 | 0.01 | 0.45 | 0.45 | 84 | 1022.0 |
| 20260901213139 | 62 | 22 | 0.0 | 0.0 | 0.01 | 0.45 | 0.45 | 84 | 1022.0 |
| 20260901212139 | 62 | 22 | 0.0 | 0.0 | 0.02 | 0.45 | 0.45 | 83 | 1021.8 |
| 20260901212036 | 62 | 22 | 0.0 | 0.0 | 0.02 | 0.45 | 0.45 | 84 | 1021.8 |
| 20260901211936 | 62 | 22 | 0.0 | 0.0 | 0.02 | 0.45 | 0.45 | 84 | 1021.8 |
| 20260901210037 | 62 | 22 | 0.0 | 0.0 | 0.02 | 0.44 | 0.44 | 83 | 1021.9 |
| 20260901205039 | 62 | 22 | 0.0 | 0.0 | 0.03 | 0.44 | 0.44 | 83 | 1021.8 |
| 20260901204938 | 62 | 22 | 0.0 | 0.0 | 0.03 | 0.44 | 0.44 | 83 | 1021.9 |
| 20260901203855 | 62 | 22 | 0.0 | 0.0 | 0.04 | 0.44 | 0.44 | 84 | 1021.6 |
| 20260901203753 | 62 | 22 | 0.0 | 0.0 | 0.04 | 0.44 | 0.44 | 84 | 1021.7 |
| 20260901202738 | 62 | 22 | 0.0 | 0.0 | 0.04 | 0.43 | 0.43 | 84 | 1021.6 |
| 20260901202636 | 62 | 22 | 0.0 | 0.0 | 0.05 | 0.43 | 0.43 | 83 | 1021.5 |
| 20260901202536 | 62 | 22 | 0.0 | 0.0 | 0.05 | 0.43 | 0.43 | 84 | 1021.6 |
| 20260901201538 | 61 | 22 | 0.0 | 0.0 | 0.05 | 0.43 | 0.43 | 84 | 1021.5 |
| 20260901194539 | 61 | 22 | 0.0 | 0.0 | 0.04 | 0.41 | 0.41 | 85 | 1021.5 |
| 20260901193553 | 61 | 22 | 0.0 | 0.0 | 0.04 | 0.40 | 0.40 | 84 | 1021.7 |
| 20260901192637 | 61 | 22 | 0.0 | 2.0 | 0.02 | 0.38 | 0.38 | 85 | 1021.5 |
| 20260901191638 | 61 | 337 | 0.0 | 0.0 | 0.02 | 0.38 | 0.38 | 85 | 1021.6 |
| 20260901190637 | 61 | 337 | 0.0 | 0.0 | 0.01 | 0.37 | 0.37 | 84 | 1021.7 |
| 20260901190553 | 61 | 337 | 0.0 | 0.0 | 0.01 | 0.37 | 0.37 | 84 | 1021.6 |
| 20260901185537 | 61 | 337 | 0.0 | 0.0 | 0.01 | 0.37 | 0.37 | 85 | 1021.5 |
| 20260901183539 | 60 | 337 | 0.0 | 0.0 | 0.01 | 0.36 | 0.36 | 85 | 1021.7 |
| 20260901181651 | 60 | 360 | 0.0 | 0.0 | 0.01 | 0.36 | 0.36 | 84 | 1021.7 |
| 20260901180639 | 60 | 360 | 0.0 | 0.0 | 0.02 | 0.36 | 0.36 | 85 | 1021.8 |
| 20260901174636 | 60 | 360 | 0.0 | 0.0 | 0.01 | 0.35 | 0.35 | 85 | 1021.7 |
| 20260901174541 | 60 | 360 | 0.0 | 0.0 | 0.01 | 0.35 | 0.35 | 84 | 1021.7 |
| 20260901173555 | 60 | 360 | 0.0 | 0.0 | 0.01 | 0.35 | 0.35 | 85 | 1021.6 |
| 20260901173436 | 60 | 360 | 0.0 | 0.0 | 0.01 | 0.35 | 0.35 | 85 | 1021.6 |
| 20260901172438 | 60 | 360 | 0.0 | 1.0 | 0.02 | 0.35 | 0.35 | 85 | 1021.6 |
| 20260901171439 | 60 | 180 | 0.0 | 0.0 | 0.01 | 0.34 | 0.34 | 84 | 1021.2 |
| 20260901170437 | 60 | 22 | 0.0 | 0.0 | 0.01 | 0.34 | 0.34 | 84 | 1021.2 |
| 20260901165437 | 60 | 180 | 1.0 | 2.0 | 0.02 | 0.34 | 0.34 | 84 | 1021.1 |
| 20260901165339 | 60 | 173 | 2.0 | 3.0 | 0.02 | 0.34 | 0.34 | 85 | 1021.1 |
| 20260901164339 | 59 | 22 | 0.0 | 1.0 | 0.02 | 0.34 | 0.34 | 85 | 1021.3 |
| 20260901160436 | 60 | 337 | 0.0 | 0.0 | 0.01 | 0.33 | 0.33 | 85 | 1021.7 |
| 20260901155437 | 60 | 337 | 0.0 | 0.0 | 0.00 | 0.32 | 0.32 | 85 | 1021.6 |
| 20260901155354 | 60 | 337 | 0.0 | 0.0 | 0.00 | 0.32 | 0.32 | 85 | 1021.6 |
| 20260901154437 | 60 | 315 | 0.0 | 1.0 | 0.00 | 0.32 | 0.32 | 85 | 1021.7 |
| 20260901153437 | 60 | 337 | 0.0 | 1.0 | 0.00 | 0.32 | 0.32 | 85 | 1021.5 |
| 20260901151438 | 60 | 22 | 0.0 | 1.0 | 0.00 | 0.32 | 0.32 | 84 | 1021.3 |
| 20260901150440 | 60 | 22 | 0.0 | 0.0 | 0.00 | 0.32 | 0.32 | 84 | 1021.3 |
| 20260901144539 | 60 | 337 | 0.0 | 0.0 | 0.00 | 0.32 | 0.32 | 85 | 1021.3 |
| 20260901143553 | 60 | 15 | 1.0 | 2.0 | 0.00 | 0.32 | 0.32 | 84 | 1021.4 |
| 20260901141651 | 60 | 315 | 0.0 | 0.0 | 0.00 | 0.32 | 0.32 | 85 | 1021.4 |
| 20260901140739 | 60 | 315 | 0.0 | 0.0 | 0.00 | 0.32 | 0.32 | 85 | 1021.5 |
| 20260901134837 | 60 | 315 | 0.0 | 0.0 | 0.00 | 0.32 | 0.32 | 86 | 1021.4 |
| 20260901133935 | 59 | 292 | 0.0 | 0.0 | 0.01 | 0.32 | 0.32 | 86 | 1021.4 |
| 20260901132936 | 60 | 292 | 0.0 | 0.0 | 0.03 | 0.32 | 0.32 | 86 | 1021.5 |
| 20260901131938 | 60 | 360 | 0.0 | 0.0 | 0.05 | 0.32 | 0.32 | 86 | 1021.5 |
| 20260901131839 | 60 | 360 | 0.0 | 0.0 | 0.05 | 0.32 | 0.32 | 86 | 1021.6 |
| 20260901130836 | 60 | 22 | 0.0 | 2.0 | 0.11 | 0.32 | 0.32 | 86 | 1021.4 |
| 20260901125837 | 60 | 337 | 0.0 | 0.0 | 0.17 | 0.32 | 0.32 | 86 | 1021.8 |
| 20260901124935 | 60 | 337 | 0.0 | 0.0 | 0.20 | 0.32 | 0.32 | 86 | 1022.0 |
| 20260901124836 | 60 | 337 | 0.0 | 0.0 | 0.20 | 0.32 | 0.32 | 86 | 1021.9 |
| 20260901123837 | 60 | 22 | 0.0 | 0.0 | 0.23 | 0.31 | 0.31 | 86 | 1022.0 |
| 20260901122837 | 61 | 180 | 0.0 | 2.0 | 0.27 | 0.28 | 0.28 | 86 | 1021.8 |
| 20260901121837 | 62 | 157 | 0.0 | 0.0 | 0.27 | 0.27 | 0.26 | 86 | 1021.9 |
| 20260901120854 | 62 | 157 | 0.0 | 0.0 | 0.21 | 0.21 | 0.21 | 85 | 1021.8 |
| 20260901115935 | 62 | 157 | 0.0 | 0.0 | 0.16 | 0.16 | 0.15 | 87 | 1022.0 |
| 20260901113935 | 62 | 157 | 0.0 | 0.0 | 0.08 | 0.08 | 0.08 | 88 | 1021.8 |
| 20260901113838 | 62 | 157 | 0.0 | 0.0 | 0.08 | 0.08 | 0.07 | 88 | 1021.8 |
| 20260901111936 | 63 | 157 | 0.0 | 0.0 | 0.00 | 0.00 | 0.00 | 88 | 1021.6 |
| 20260901111035 | 63 | 157 | 0.0 | 0.0 | 0.00 | 0.00 | 0.00 | 88 | 1021.4 |
| 20260901105036 | 63 | 157 | 0.0 | 0.0 | 0.00 | 0.00 | 0.00 | 87 | 1021.5 |
| 20260901104036 | 63 | 157 | 0.0 | 0.0 | 0.00 | 0.00 | 0.00 | 88 | 1021.4 |
| 20260901103037 | 63 | 157 | 0.0 | 0.0 | 0.00 | 0.00 | 0.00 | 89 | 1021.2 |
| 20260901102037 | 63 | 157 | 0.0 | 0.0 | 0.00 | 0.00 | 0.00 | 89 | 1021.2 |
| 20260901101135 | 62 | 157 | 0.0 | 0.0 | 0.00 | 0.00 | 0.00 | 88 | 1021.0 |
| 20260901101038 | 62 | 157 | 0.0 | 0.0 | 0.00 | 0.00 | 0.00 | 89 | 1020.9 |
| 20260901100036 | 62 | 157 | 0.0 | 0.0 | 0.00 | 0.00 | 0.00 | 89 | 1020.8 |
| 20260901095051 | 62 | 157 | 0.0 | 0.0 | 0.00 | 0.00 | 0.00 | 89 | 1020.7 |
| 20260901093036 | 62 | 157 | 0.0 | 0.0 | 0.00 | 0.00 | 0.00 | 89 | 1021.1 |
| 20260901092935 | 62 | 157 | 0.0 | 0.0 | 0.00 | 0.00 | 0.00 | 88 | 1021.0 |
| 20260901091937 | 62 | 157 | 0.0 | 0.0 | 0.00 | 0.00 | 0.00 | 89 | 1020.9 |
| 20260901090936 | 62 | 157 | 0.0 | 0.0 | 0.00 | 0.00 | 0.00 | 89 | 1020.9 |
| 20260901085953 | 62 | 157 | 0.0 | 0.0 | 0.00 | 0.00 | 0.00 | 89 | 1021.0 |
| 20260901084938 | 62 | 157 | 0.0 | 0.0 | 0.00 | 0.00 | 0.00 | 89 | 1020.9 |
| 20260901083937 | 62 | 157 | 0.0 | 0.0 | 0.00 | 0.00 | 0.00 | 88 | 1020.8 |
| 20260901082938 | 62 | 157 | 0.0 | 0.0 | 0.00 | 0.00 | 0.00 | 89 | 1020.9 |
| 20260901081037 | 63 | 157 | 0.0 | 0.0 | 0.00 | 0.00 | 0.00 | 89 | 1020.8 |
| 20260901075136 | 62 | 157 | 0.0 | 0.0 | 0.00 | 0.00 | 0.00 | 88 | 1020.8 |
| 20260901074137 | 63 | 157 | 0.0 | 0.0 | 0.00 | 0.00 | 0.00 | 89 | 1020.9 |
| 20260901073151 | 63 | 157 | 0.0 | 0.0 | 0.00 | 0.00 | 0.00 | 89 | 1021.1 |
| 20260901072236 | 62 | 157 | 0.0 | 0.0 | 0.00 | 0.00 | 0.00 | 89 | 1021.2 |
| 20260901071239 | 62 | 157 | 0.0 | 0.0 | 0.00 | 0.00 | 0.00 | 88 | 1021.4 |
| 20260901070238 | 62 | 157 | 0.0 | 0.0 | 0.00 | 0.00 | 0.00 | 89 | 1021.6 |
| 20260901064335 | 63 | 157 | 0.0 | 0.0 | 0.00 | 0.00 | 0.00 | 89 | 1021.4 |
| 20260901063335 | 63 | 157 | 0.0 | 0.0 | 0.00 | 0.00 | 0.00 | 89 | 1021.6 |
| 20260901062339 | 62 | 157 | 0.0 | 0.0 | 0.00 | 0.00 | 0.00 | 88 | 1021.8 |
| 20260901061435 | 62 | 157 | 0.0 | 0.0 | 0.00 | 0.00 | 0.00 | 89 | 1021.6 |
| 20260901060438 | 62 | 157 | 0.0 | 0.0 | 0.00 | 0.00 | 0.00 | 89 | 1021.6 |
| 20260901054635 | 62 | 157 | 0.0 | 0.0 | 0.00 | 0.00 | 0.00 | 89 | 1021.6 |
| 20260901053637 | 62 | 157 | 0.0 | 0.0 | 0.00 | 0.00 | 0.00 | 89 | 1021.7 |
| 20260901052735 | 62 | 157 | 0.0 | 0.0 | 0.00 | 0.00 | 0.00 | 88 | 1021.9 |
| 20260901051736 | 62 | 157 | 0.0 | 0.0 | 0.00 | 0.00 | 0.00 | 89 | 1021.7 |
| 20260901050737 | 62 | 157 | 0.0 | 0.0 | 0.00 | 0.00 | 0.00 | 88 | 1021.7 |
| 20260901045736 | 62 | 157 | 0.0 | 0.0 | 0.00 | 0.00 | 0.00 | 89 | 1021.6 |
| 20260901044734 | 62 | 157 | 0.0 | 0.0 | 0.00 | 0.00 | 0.00 | 88 | 1021.7 |
| 20260901043737 | 63 | 157 | 0.0 | 0.0 | 0.00 | 0.00 | 0.00 | 88 | 1021.8 |
| 20260901042738 | 63 | 157 | 0.0 | 0.0 | 0.00 | 0.00 | 0.00 | 87 | 1021.6 |
| 20260901034924 | 64 | 157 | 0.0 | 0.0 | 0.00 | 0.00 | 0.00 | 86 | 1021.7 |
| 20260901033925 | 64 | 157 | 0.0 | 0.0 | 0.00 | 0.00 | 0.00 | 86 | 1021.5 |
| 20260901032923 | 65 | 157 | 0.0 | 0.0 | 0.00 | 0.00 | 0.00 | 85 | 1021.6 |
| 20260901032826 | 65 | 157 | 0.0 | 0.0 | 0.00 | 0.00 | 0.00 | 85 | 1021.8 |
| 20260901031823 | 65 | 157 | 0.0 | 0.0 | 0.00 | 0.00 | 0.00 | 85 | 1021.8 |
| 20260901030839 | 65 | 157 | 0.0 | 0.0 | 0.00 | 0.00 | 0.00 | 84 | 1021.8 |
| 20260901025838 | 65 | 157 | 0.0 | 2.0 | 0.00 | 0.00 | 0.00 | 85 | 1021.9 |
| 20260901024823 | 65 | 157 | 0.0 | 0.0 | 0.00 | 0.00 | 0.00 | 85 | 1022.0 |
| 20260901023841 | 66 | 157 | 0.0 | 0.0 | 0.00 | 0.00 | 0.00 | 85 | 1021.6 |
| 20260901022925 | 65 | 157 | 0.0 | 0.0 | 0.00 | 0.00 | 0.00 | 85 | 1021.7 |
| 20260901021923 | 65 | 225 | 0.0 | 0.0 | 0.00 | 0.00 | 0.00 | 86 | 1021.7 |
| 20260901020924 | 65 | 225 | 0.0 | 0.0 | 0.00 | 0.00 | 0.00 | 85 | 1021.6 |
| 20260901020841 | 65 | 225 | 0.0 | 0.0 | 0.00 | 0.00 | 0.00 | 86 | 1021.7 |
| 20260901015923 | 65 | 225 | 0.0 | 0.0 | 0.00 | 0.00 | 0.00 | 85 | 1021.7 |
| 20260901014924 | 65 | 225 | 0.0 | 1.0 | 0.00 | 0.00 | 0.00 | 85 | 1021.8 |
| 20260901013941 | 65 | 225 | 0.0 | 0.0 | 0.00 | 0.00 | 0.00 | 85 | 1021.6 |
| 20260901012926 | 65 | 225 | 0.0 | 0.0 | 0.00 | 0.00 | 0.00 | 85 | 1021.8 |
| 20260901012827 | 65 | 225 | 0.0 | 0.0 | 0.00 | 0.00 | 0.00 | 84 | 1021.8 |
| 20260901011826 | 65 | 225 | 0.0 | 0.0 | 0.00 | 0.00 | 0.00 | 84 | 1021.8 |
| 20260901011724 | 65 | 225 | 0.0 | 0.0 | 0.00 | 0.00 | 0.00 | 84 | 1021.8 |
| 20260901010725 | 65 | 225 | 0.0 | 0.0 | 0.00 | 0.00 | 0.00 | 83 | 1022.0 |
| 20260901005726 | 66 | 225 | 0.0 | 0.0 | 0.00 | 0.00 | 0.00 | 84 | 1022.0 |
| 20260901004823 | 66 | 225 | 0.0 | 0.0 | 0.00 | 0.00 | 0.00 | 83 | 1021.9 |
| 20260901003922 | 66 | 225 | 0.0 | 0.0 | 0.00 | 0.00 | 0.00 | 82 | 1021.9 |
| 20260901003822 | 66 | 225 | 0.0 | 0.0 | 0.00 | 0.00 | 0.00 | 83 | 1021.8 |
| 20260901002824 | 66 | 225 | 0.0 | 0.0 | 0.00 | 0.00 | 0.00 | 82 | 1021.8 |
| 20260901001822 | 66 | 225 | 0.0 | 0.0 | 0.00 | 0.00 | 0.00 | 81 | 1021.6 |
| 20260901001724 | 66 | 225 | 0.0 | 0.0 | 0.00 | 0.00 | 0.00 | 81 | 1021.7 |
| 20260901001622 | 66 | 225 | 0.0 | 0.0 | 0.00 | 0.00 | 0.00 | 80 | 1021.6 |
| 20260901000638 | 66 | 225 | 0.0 | 0.0 | 0.00 | 0.00 | 0.00 | 80 | 1021.6 |
| 20260831234739 | 67 | 225 | 0.0 | 0.0 | 0.00 | 0.00 | 0.00 | 78 | 1021.5 |